Sunshine Coast Airport Observation History
Time Wind Speed Temp Pressure Rel. Hum Rain
10/10:30am ESE 7-10 kts 18.9°c 1026.2 hPa 81% 0.0mm
10/10:00am ENE 5-6 kts 19.9°c 1026.5 hPa 77% 0.0mm
10/09:30am ENE 9-11 kts 18.9°c 1026.7 hPa 77% 0.0mm
10/09:00am ENE 16-21 kts 19.1°c 1026.7 hPa 75% 6.0mm
10/08:56am ENE 15-21 kts 19.3°c 1026.7 hPa 74% 6.0mm
10/08:30am ESE 7-9 kts 18.5°c 1026.8 hPa 80% 6.0mm
10/08:18am ESE 10-14 kts 17.5°c 1026.7 hPa 83% 6.0mm
10/08:00am E 13-16 kts 16.9°c 1027.0 hPa 88% 6.0mm
10/07:59am E 13-16 kts 17.0°c 1027.0 hPa 88% 6.0mm
10/07:30am ESE 10-15 kts 17.9°c 1026.6 hPa 78% 6.0mm
10/07:00am SSE 7-11 kts 16.6°c 1026.4 hPa 95% 6.0mm
10/06:30am SSW 7-9 kts 14.9°c 1026.3 hPa 93% 6.0mm
10/06:00am NNE 2-5 kts 15.2°c 1026.0 hPa 91% 6.0mm
10/05:30am SSW 6-8 kts 14.8°c 1026.0 hPa 94% 6.0mm
10/05:00am SSW 5-7 kts 14.8°c 1025.8 hPa 95% 5.8mm
10/04:30am SW 6-7 kts 14.3°c 1025.6 hPa 95% 5.8mm
10/04:00am SW 4-5 kts 14.2°c 1025.5 hPa 95% 5.8mm
10/03:30am SW 5-7 kts 14.6°c 1025.5 hPa 95% 5.8mm
10/03:00am W 7-8 kts 14.5°c 1025.6 hPa 94% 5.8mm
10/02:30am SW 6-8 kts 14.9°c 1025.7 hPa 94% 5.8mm
10/02:00am WNW 6-8 kts 14.9°c 1025.8 hPa 94% 5.8mm
10/01:30am WSW 7-8 kts 15.2°c 1025.8 hPa 93% 5.8mm
10/01:00am W 5-8 kts 16.0°c 1026.3 hPa 89% 5.8mm
10/12:30am SSW 7-10 kts 16.1°c 1026.7 hPa 91% 5.8mm
10/12:26am S 8-11 kts 16.2°c 1026.8 hPa 91% 5.8mm
10/12:06am SE 13-18 kts 16.4°c 1027.0 hPa 88% 5.6mm
10/12:00am SE 14-18 kts 16.9°c 1027.0 hPa 87% 5.6mm
Time Wind Speed Temp Pressure Rel. Hum Rain
09/11:30pm ENE 8-13 kts 17.0°c 1026.9 hPa 79% 5.6mm
09/11:26pm ENE 11-15 kts 17.8°c 1026.7 hPa 78% 5.6mm
09/11:07pm ENE 4-7 kts 15.6°c 1026.7 hPa 91% 5.6mm
09/11:00pm S 5-7 kts 15.5°c 1026.7 hPa 91% 4.4mm
09/10:30pm WSW 8-9 kts 15.1°c 1026.8 hPa 92% 4.4mm
09/10:00pm SW 3-5 kts 15.9°c 1027.2 hPa 85% 4.4mm
09/09:30pm ESE 9-14 kts 19.6°c 1026.8 hPa 62% 4.4mm
09/09:00pm ESE 10-15 kts 19.5°c 1026.8 hPa 62% 4.4mm
09/08:30pm ESE 11-16 kts 19.7°c 1026.6 hPa 64% 4.4mm
09/08:00pm ENE 8-12 kts 18.4°c 1026.5 hPa 71% 4.4mm
09/07:30pm E 11-17 kts 19.2°c 1026.6 hPa 73% 4.4mm
09/07:00pm ENE 14-17 kts 18.9°c 1026.4 hPa 74% 4.4mm
09/06:30pm E 11-15 kts 19.8°c 1026.2 hPa 64% 4.4mm
09/06:00pm E 11-15 kts 19.8°c 1025.8 hPa 62% 4.4mm
09/05:30pm E 11-15 kts 19.7°c 1025.5 hPa 64% 4.4mm
09/05:00pm ENE 7-10 kts 18.8°c 1025.4 hPa 75% 4.4mm
09/04:30pm ENE 13-16 kts 18.5°c 1025.4 hPa 79% 4.4mm
09/04:00pm E 10-13 kts 19.0°c 1025.5 hPa 76% 4.4mm
09/03:34pm ESE 13-21 kts 18.7°c 1025.3 hPa 75% 4.4mm
09/03:30pm E 9-20 kts 18.2°c 1025.4 hPa 79% 4.4mm
09/03:15pm ENE 18-24 kts 16.8°c 1025.8 hPa 84% 4.2mm
09/03:06pm E 13-24 kts 18.4°c 1025.4 hPa 74% 3.2mm
09/03:00pm E 10-13 kts 19.5°c 1025.4 hPa 73% 3.2mm
09/02:30pm SSE 7-10 kts 20.0°c 1025.5 hPa 71% 3.2mm
09/02:00pm S 8-11 kts 19.5°c 1025.8 hPa 78% 3.2mm
09/01:30pm S 9-11 kts 18.8°c 1026.0 hPa 81% 3.2mm
09/01:00pm SSW 9-11 kts 17.9°c 1026.4 hPa 88% 3.2mm
09/12:30pm SW 6-9 kts 17.0°c 1026.8 hPa 88% 3.2mm
09/12:20pm SW 5-7 kts 16.7°c 1027.0 hPa 86% 3.0mm
09/12:03pm E 2-6 kts 17.0°c 1027.0 hPa 89% 2.4mm
09/12:00pm ESE 1-4 kts 17.1°c 1027.0 hPa 89% 2.4mm
09/11:56am SE 3-6 kts 16.8°c 1027.3 hPa 89% 2.4mm
09/11:30am S 8-15 kts 17.1°c 1028.0 hPa 90% 2.2mm
09/11:10am ESE 5-10 kts 17.1°c 1027.9 hPa 91% 1.8mm
09/11:00am SSE 7-11 kts 16.9°c 1028.2 hPa 92% 1.8mm
09/10:46am S 7-8 kts 17.1°c 1028.3 hPa 92% 1.6mm
09/10:42am S 7-9 kts 17.0°c 1028.4 hPa 91% 1.6mm
09/10:38am S 7-9 kts 17.0°c 1028.4 hPa 91% 1.4mm
09/10:30am SSW 6-9 kts 16.9°c 1028.4 hPa 92% 1.4mm
09/10:17am SSW 7-10 kts 16.7°c 1028.5 hPa 90% 1.2mm
09/10:00am SSW 11-14 kts 16.9°c 1028.4 hPa 90% 0.6mm
09/09:30am SSW 9-11 kts 16.2°c 1028.2 hPa 93% 0.6mm
09/09:19am SW 7-9 kts 16.1°c 1028.2 hPa 94% 0.6mm
09/09:00am SSW 6-9 kts 15.7°c 1028.3 hPa 94% 15.0mm
09/08:42am SSW 6-9 kts 15.5°c 1028.0 hPa 93% 14.2mm
09/08:30am SW 7-11 kts 15.5°c 1028.1 hPa 91% 13.8mm
09/08:11am E 11-16 kts 16.6°c 1027.6 hPa 87% 13.4mm
09/08:00am E 13-18 kts 16.8°c 1027.5 hPa 88% 13.2mm
09/07:53am E 12-19 kts 17.0°c 1027.5 hPa 88% 13.2mm
09/07:30am SSW 7-10 kts 15.8°c 1026.9 hPa 91% 12.8mm
09/07:00am SSE 12-17 kts 17.3°c 1026.7 hPa 86% 12.6mm
09/06:46am SE 12-18 kts 17.4°c 1026.6 hPa 85% 12.6mm
09/06:30am S 9-14 kts 16.1°c 1026.3 hPa 94% 12.6mm
09/06:10am S 7-13 kts 15.9°c 1026.0 hPa 91% 12.6mm
09/06:00am SE 6-10 kts 15.9°c 1025.8 hPa 91% 12.6mm
09/05:30am E 12-16 kts 17.9°c 1025.5 hPa 83% 12.6mm
09/05:18am E 12-16 kts 17.5°c 1025.3 hPa 85% 12.6mm
09/05:00am E 17-25 kts 17.0°c 1025.0 hPa 91% 12.2mm
09/04:50am ENE 19-29 kts 16.9°c 1024.8 hPa 91% 10.6mm
09/04:47am E 17-29 kts 17.1°c 1024.6 hPa 89% 9.0mm
09/04:46am E 16-26 kts 17.3°c 1024.6 hPa 89% 8.6mm
09/04:30am ESE 10-16 kts 18.5°c 1024.6 hPa 78% 8.2mm
09/04:04am ESE 13-22 kts 18.0°c 1024.7 hPa 83% 8.2mm
09/04:00am SE 11-22 kts 17.5°c 1024.7 hPa 88% 8.2mm
09/03:59am SE 11-19 kts 17.2°c 1024.7 hPa 90% 8.2mm
09/03:42am SSE 12-19 kts 16.2°c 1024.8 hPa 94% 8.0mm
09/03:30am WSW 5-8 kts 15.5°c 1025.0 hPa 93% 7.4mm
09/03:05am S 6-12 kts 15.5°c 1025.1 hPa 92% 7.4mm
09/03:00am SSE 5-9 kts 16.2°c 1025.1 hPa 93% 7.4mm
09/02:47am S 9-13 kts 16.3°c 1024.8 hPa 93% 7.4mm
09/02:30am SSE 9-18 kts 15.8°c 1025.0 hPa 95% 7.2mm
09/02:27am SSE 9-12 kts 15.4°c 1025.1 hPa 94% 7.2mm
09/02:26am SSE 9-12 kts 15.5°c 1025.1 hPa 94% 7.0mm
09/02:24am S 10-14 kts 15.5°c 1025.1 hPa 94% 6.6mm
09/02:16am S 9-14 kts 15.4°c 1025.0 hPa 94% 5.8mm
09/02:10am S 6-10 kts 15.7°c 1025.1 hPa 95% 5.8mm
09/02:00am SW 6-12 kts 14.9°c 1025.3 hPa 95% 4.8mm
09/01:59am SSW 6-12 kts 14.9°c 1025.4 hPa 95% 4.8mm
09/01:53am SW 9-12 kts 14.9°c 1025.3 hPa 95% 3.2mm
09/01:43am SSW 9-12 kts 14.9°c 1025.2 hPa 94% 2.0mm
09/01:30am SW 7-13 kts 15.0°c 1025.3 hPa 94% 2.0mm
09/01:24am SW 6-11 kts 15.0°c 1025.5 hPa 94% 1.8mm
09/01:00am SSW 11-14 kts 14.9°c 1025.7 hPa 93% 0.4mm
09/12:51am SSW 10-14 kts 14.9°c 1025.8 hPa 93% 0.4mm
09/12:43am SSW 11-13 kts 14.8°c 1025.8 hPa 93% 0.2mm
09/12:30am SSW 12-17 kts 15.0°c 1025.8 hPa 93% 0.2mm
09/12:14am SSW 13-19 kts 15.1°c 1025.9 hPa 92% 0.2mm
09/12:00am SSW 15-20 kts 15.2°c 1026.2 hPa 91% 0.0mm
Time Wind Speed Temp Pressure Rel. Hum Rain
08/11:30pm SSW 14-17 kts 15.0°c 1025.9 hPa 91% 0.0mm
08/11:14pm SSW 15-23 kts 14.6°c 1026.0 hPa 89% 0.0mm
08/11:00pm S 16-22 kts 14.7°c 1026.2 hPa 86% 0.0mm
08/10:59pm S 16-21 kts 14.8°c 1026.2 hPa 86% 0.0mm
08/10:30pm SSW 13-19 kts 15.8°c 1026.1 hPa 86% 0.0mm
08/10:00pm S 11-16 kts 15.9°c 1026.4 hPa 86% 0.0mm
08/09:30pm SSW 9-13 kts 15.5°c 1026.4 hPa 83% 0.0mm
08/09:00pm SSW 9-12 kts 15.6°c 1026.1 hPa 85% 0.0mm
08/08:30pm SSW 11-15 kts 16.1°c 1026.0 hPa 84% 0.0mm
08/08:00pm SSW 10-13 kts 16.7°c 1025.8 hPa 84% 0.0mm
08/07:30pm S 9-11 kts 17.5°c 1025.6 hPa 81% 0.0mm
08/07:00pm SSE 13-17 kts 18.2°c 1025.4 hPa 79% 0.0mm
08/06:30pm SSE 13-18 kts 18.7°c 1025.0 hPa 77% 0.0mm
08/06:00pm SSE 12-18 kts 19.0°c 1024.6 hPa 72% 0.0mm
08/05:30pm SE 13-17 kts 19.2°c 1024.5 hPa 72% 0.0mm
08/05:00pm SE 11-15 kts 19.2°c 1024.5 hPa 71% 0.0mm
08/04:30pm SE 10-14 kts 19.2°c 1024.4 hPa 71% 0.0mm
08/04:00pm SE 10-14 kts 19.4°c 1024.4 hPa 68% 0.0mm
08/03:30pm SSE 11-16 kts 19.8°c 1024.3 hPa 66% 0.0mm
08/03:00pm SSE 11-14 kts 19.5°c 1024.2 hPa 64% 0.0mm
08/02:30pm SSE 11-15 kts 19.6°c 1024.3 hPa 63% 0.0mm
08/02:00pm SSE 11-15 kts 20.2°c 1024.5 hPa 62% 0.0mm
08/01:30pm SSE 14-18 kts 20.2°c 1024.9 hPa 61% 0.0mm
08/01:00pm SSE 13-18 kts 20.2°c 1025.1 hPa 63% 0.0mm
08/12:30pm SSE 13-17 kts 19.9°c 1025.3 hPa 61% 0.0mm
08/12:00pm SSE 15-18 kts 20.1°c 1025.6 hPa 58% 0.0mm
08/11:30am S 13-18 kts 20.7°c 1025.8 hPa 62% 0.0mm
08/11:00am S 12-17 kts 20.4°c 1026.2 hPa 63% 0.0mm
08/10:30am S 13-20 kts 19.4°c 1026.6 hPa 64% 0.0mm
08/10:00am SSW 14-21 kts 18.9°c 1026.6 hPa 66% 0.0mm
08/09:30am S 14-19 kts 18.1°c 1026.6 hPa 65% 0.0mm
08/09:00am SSW 14-19 kts 17.4°c 1026.4 hPa 67% 0.6mm
08/08:30am SSW 13-19 kts 16.4°c 1026.4 hPa 68% 0.6mm
08/08:00am SSW 14-19 kts 16.1°c 1026.1 hPa 68% 0.6mm
08/07:30am S 14-18 kts 15.3°c 1025.7 hPa 71% 0.6mm
08/07:00am S 13-20 kts 14.9°c 1025.5 hPa 72% 0.6mm
08/06:30am S 14-17 kts 14.8°c 1025.3 hPa 72% 0.6mm
08/06:00am S 13-16 kts 14.5°c 1025.0 hPa 74% 0.6mm
08/05:30am S 13-16 kts 14.6°c 1024.6 hPa 75% 0.6mm
08/05:00am S 12-16 kts 14.4°c 1024.6 hPa 75% 0.6mm
08/04:30am S 12-15 kts 14.6°c 1024.4 hPa 74% 0.6mm
08/04:00am S 11-15 kts 14.6°c 1024.4 hPa 73% 0.6mm
08/03:30am S 13-18 kts 14.9°c 1024.5 hPa 72% 0.6mm
08/03:00am S 13-17 kts 15.1°c 1024.9 hPa 71% 0.6mm
08/02:30am SSW 13-17 kts 15.2°c 1025.1 hPa 73% 0.6mm
08/02:00am SSW 11-14 kts 15.3°c 1025.1 hPa 74% 0.6mm
08/01:30am SSW 10-14 kts 15.5°c 1025.3 hPa 76% 0.6mm
08/01:00am SSW 11-15 kts 15.9°c 1025.4 hPa 78% 0.6mm
08/12:30am SSW 9-13 kts 15.9°c 1025.6 hPa 81% 0.6mm
08/12:00am SSW 8-11 kts 16.0°c 1025.7 hPa 84% 0.6mm